Weather observations for the past three days for
Saginaw County H W Browne Airport
Imperial (Metric)
Date Time (edt) Wind (mph) Vis. (mi.) Weather Sky Cond. Temperature (ºF) Relative Humidity Wind Chill (°F) Heat Index (°F) Pressure Precipitation (in)
Air Dwpt 6 hour altimeter (in) sea level (mb) 1 hr 3 hr 6 hr
Max. Min.
03 23:15 Calm 1.25 Fog/Mist SCT018 69.8 68 94% 29.99 0.0
03 22:55 N 1 10.00 Mostly Cloudy BKN018 69.8 69.8 100% 29.98 0.0 0.02
03 22:35 SE 3 10.00 Overcast OVC016 71.6 69.8 94% 29.98 0.0
03 22:15 Calm 10.00 Overcast OVC016 71.6 69.8 94% 29.98 0.0
03 21:55 SE 2 10.00 Overcast OVC014 71.6 69.8 94% 29.97 0.0 0.03
03 21:35 SE 2 10.00 Overcast OVC014 71.6 69.8 94% 29.97 0.0
03 21:15 SW 3 10.00 Overcast OVC014 71.6 69.8 94% 29.98 0.0
03 20:55 SE 1 7.00 Fog/Mist OVC012 71.6 69.8 94% 29.96 0.0 0.03
03 20:35 Calm 10.00 Overcast OVC012 71.6 69.8 94% 29.95 0.0
03 20:15 SW 1 10.00 Overcast OVC012 73.4 69.8 89% 29.95 0.0
03 19:55 S 2 10.00 Overcast OVC010 73.4 69.8 75.2 69.4 89% 29.94 0.0 0.04
03 19:35 SW 3 10.00 Overcast OVC012 73.4 71.6 94% 29.95 0.0
03 19:15 S 5 10.00 Overcast OVC012 73.4 71.6 94% 29.94 0.0
03 18:55 S 6 10.00 Overcast SCT007 OVC012 73.4 71.6 94% 29.93 0.0 0.05
03 18:35 Vrbl 2 10.00 Overcast OVC007 73.4 71.6 94% 29.94 0.0
03 18:15 S 6 10.00 Mostly Cloudy BKN007 BKN110 73.4 71.6 94% 29.93 0.0
03 17:55 S 6 10.00 Mostly Cloudy FEW005 BKN120 73.4 71.6 94% 29.92 0.0 0.05
03 17:15 SE 6 10.00 Mostly Cloudy BKN005 73.4 71.6 94% 29.91 0.0
03 16:55 E 3 10.00 Overcast OVC003 73.4 71.6 94% 29.92 0.0 0.06
03 16:35 E 6 10.00 Light Rain OVC003 73.4 71.6 94% 29.94 0.0
03 16:15 NE 8 6.00 Light Rain Fog/Mist BKN003 BKN007 OVC060 71.6 69.8 94% 29.96 0.0
03 15:55 N 5 5.00 Light Rain Fog/Mist SCT007 BKN065 OVC090 69.8 69.8 100% 30 0.0 0.07
03 15:35 W 8 6.00 Light Rain Fog/Mist SCT007 BKN032 OVC090 71.6 69.8 94% 30.02 0.0
03 15:15 NE 6 10.00 Light Rain BKN007 OVC011 71.6 69.8 94% 29.98 0.0
03 14:55 N 3 4.00 Light Rain Fog/Mist SCT011 BKN016 BKN044 69.8 69.8 100% 29.99 0.0 0.1
03 14:35 W 18 G 36 1.50 Light Rain Fog/Mist SCT006 BKN012 OVC050 71.6 69.8 94% 30.02 0.0
03 14:15 NE 6 10.00 Light Rain OVC050 73.4 71.6 94% 29.96 0.0
03 13:55 Vrbl 5 4.00 Rain Fog/Mist BKN047 BKN050 OVC065 75.2 73.4 76.8 69.8 94% 74 29.93 0.0 0.02
03 13:35 E 3 9.00 Overcast BKN075 OVC085 75.2 73.4 94% 74 29.92 0.0
03 13:15 SE 6 10.00 Partly Cloudy SCT075 75.2 73.4 94% 74 29.92 0.0
03 12:55 SE 6 10.00 Partly Cloudy SCT075 75.2 73.4 94% 74 29.92 0.0 0.09
03 12:35 E 6 8.00 Light Rain SCT065 BKN075 BKN090 75.2 73.4 94% 74 29.93 0.0
03 12:15 E 3 2.50 Rain Fog/Mist SCT009 BKN065 OVC085 73.4 71.6 94% 29.94 0.0
03 11:55 S 6 9.00 Overcast SCT009 BKN070 OVC120 75.2 71.6 89% 75 29.96 0.0
03 11:35 S 7 10.00 Overcast SCT036 BKN043 OVC075 75.2 71.6 89% 75 29.96 0.0
03 11:15 S 5 10.00 Overcast SCT007 BKN075 OVC090 75.2 71.6 89% 75 29.97 0.0
03 10:55 Vrbl 2 10.00 Mostly Cloudy BKN007 BKN035 BKN075 75.2 71.6 89% 75 29.96 0.0
03 10:35 Vrbl 1 10.00 Overcast BKN005 OVC036 73.4 71.6 94% 29.95 0.0
03 10:15 NE 2 10.00 Overcast OVC005 73.4 71.6 94% 29.94 0.0
03 09:55 N 3 9.00 Overcast OVC005 71.6 69.8 94% 29.96 0.0
03 09:35 N 5 8.00 Overcast OVC003 71.6 69.8 94% 29.95 0.0
03 09:15 N 5 5.00 Fog/Mist OVC001 71.6 69.8 94% 29.95 0.0
03 08:55 NE 3 4.00 Fog/Mist OVC001 69.8 69.8 100% 29.95 0.0
03 08:35 NE 5 1.75 Fog/Mist OVC001 69.8 69.8 100% 29.96 0.0
03 08:15 NE 5 1.00 Fog/Mist OVC001 69.8 69.8 100% 29.96 0.0
03 07:55 N 3 0.15 Fog VV000 69.8 69.8 71.1 67.5 100% 29.96 0.0
03 07:35 NE 3 0.25 Fog VV002 69.8 69.8 100% 29.95 0.0
03 07:15 N 3 0.50 Fog BKN002 69.8 69.8 100% 29.95 0.0
03 06:55 N 5 0.25 Fog VV002 69.8 69.8 100% 29.94 0.0
03 06:35 N 3 0.15 Fog VV000 69.8 69.8 100% 29.94 0.0
03 06:15 N 1 0.15 Fog VV000 69.8 69.8 100% 29.94 0.0
03 05:55 N 2 0.15 Fog BKN003 69.8 69.8 100% 29.93 0.0
03 05:35 N 3 1.75 Fog/Mist OVC003 69.8 68 94% 29.93 0.0
03 05:15 NW 2 0.50 Fog BKN003 BKN060 BKN080 68 68 100% 29.93 0.0
03 04:35 S 1 0.25 Fog VV002 68 68 100% 29.92 0.0
03 04:15 SE 2 0.50 Fog VV005 68 68 100% 29.92 0.0
03 03:55 S 2 0.75 Fog/Mist VV005 68 68 100% 29.92 0.0
03 03:35 Calm 4.00 Fog/Mist FEW033 68 68 100% 29.92 0.0
03 03:15 Calm 3.00 Fog/Mist CLR 69.8 68 94% 29.92 0.0
03 02:55 N 1 5.00 Fog/Mist CLR 69.8 69.8 100% 29.92 0.0
03 02:35 SE 1 4.00 Fog/Mist CLR 69.8 69.8 100% 29.92 0.0
03 02:15 NW 1 6.00 Fog/Mist CLR 69.8 69.8 100% 29.92 0.0
03 01:55 N 2 6.00 Fog/Mist FEW028 71.6 69.8 77.9 70 94% 29.92 0.0
03 01:35 N 1 6.00 Fog/Mist FEW028 71.6 69.8 94% 29.92 0.0
03 01:15 NW 1 6.00 Fog/Mist CLR 69.8 69.8 100% 29.92 0.0
03 00:55 S 2 9.00 A Few Clouds FEW033 71.6 69.8 94% 29.92 0.0
03 00:35 SE 5 10.00 Partly Cloudy SCT033 71.6 69.8 94% 29.91 0.0
03 00:15 SE 2 10.00 Partly Cloudy SCT031 71.6 69.8 94% 29.91 0.0
02 23:55 W 1 10.00 Overcast OVC027 73.4 71.6 94% 29.9 0.0
02 23:35 SW 3 10.00 Mostly Cloudy BKN027 71.6 69.8 94% 29.89 0.0
02 23:15 SW 3 10.00 A Few Clouds FEW027 73.4 71.6 94% 29.89 0.0
02 22:55 SW 2 10.00 Fair CLR 73.4 71.6 94% 29.89 0.0
02 22:35 S 1 10.00 Fair CLR 73.4 71.6 94% 29.89 0.0
02 22:15 S 3 10.00 Partly Cloudy SCT100 75.2 71.6 89% 75 29.9 0.0
02 21:55 E 2 10.00 Partly Cloudy SCT100 73.4 71.6 94% 29.9 0.0
02 21:35 SE 3 10.00 Fair CLR 75.2 71.6 89% 75 29.9 0.0
02 21:15 S 3 10.00 Partly Cloudy FEW030 SCT120 75.2 73.4 94% 74 29.9 0.0
02 20:55 SE 1 8.00 Mostly Cloudy BKN120 75.2 73.4 94% 74 29.89 0.0
02 20:35 SW 1 9.00 A Few Clouds FEW120 77 73.4 89% 78 29.89 0.0
02 20:15 NE 1 10.00 Fair CLR 77 73.4 89% 78 29.88 0.0
02 19:55 SE 2 10.00 Fair CLR 77 73.4 90 77.9 89% 78 29.89 0.0
02 19:35 NE 1 10.00 A Few Clouds FEW049 FEW070 FEW120 78.8 73.4 84% 82 29.89 0.0
02 19:15 E 2 10.00 Partly Cloudy FEW050 FEW070 SCT110 78.8 73.4 84% 82 29.89 0.0
02 18:55 E 2 10.00 Partly Cloudy SCT060 78.8 73.4 84% 82 29.88 0.0
02 18:35 Vrbl 3 10.00 Partly Cloudy SCT050 78.8 73.4 84% 82 29.88 0.0
02 18:15 E 7 10.00 A Few Clouds FEW120 80.6 73.4 79% 85 29.88 0.0
02 17:15 E 6 7.00 Rain SCT043 BKN060 OVC095 80.6 71.6 74% 85 29.86 0.0
02 16:55 N 7 10.00 Overcast BKN039 BKN048 OVC120 80.6 73.4 79% 85 29.89 0.0
02 16:35 N 9 10.00 Partly Cloudy FEW041 SCT050 SCT120 82.4 73.4 74% 88 29.88 0.0
02 16:15 NE 6 10.00 Mostly Cloudy BKN037 82.4 75.2 79% 89 29.87 0.0
02 15:55 N 7 10.00 Mostly Cloudy BKN037 BKN046 BKN090 87.8 73.4 62% 96 29.88 0.0
02 15:35 W 7 10.00 Partly Cloudy SCT100 89.6 75.2 63% 100 29.89 0.0
02 15:15 W 9 10.00 Mostly Cloudy BKN100 87.8 75.2 66% 98 29.89 0.0
02 14:55 SW 14 10.00 Fair CLR 87.8 75.2 66% 98 29.89 0.0
02 14:35 SW 10 10.00 Partly Cloudy SCT090 SCT110 87.8 77 70% 100 29.9 0.0
02 14:15 SW 12 10.00 Mostly Cloudy BKN090 87.8 75.2 66% 98 29.91 0.0
02 13:55 SW 8 10.00 Mostly Cloudy SCT100 BKN110 87.8 75.2 87.8 75 66% 98 29.91 0.0
02 13:35 SW 9 10.00 Mostly Cloudy BKN110 87.8 73.4 62% 96 29.92 0.0
02 13:15 SW 13 10.00 A Few Clouds FEW110 87.8 73.4 62% 96 29.92 0.0
02 12:55 Calm 7.00 Fair CLR 87.8 73.4 62% 96 29.92 0.0
02 12:35 S 6 6.00 Fair with Haze CLR 86 73.4 66% 93 29.93 0.0
02 12:15 Vrbl 2 10.00 Fair CLR 86 71.6 62% 92 29.93 0.0
02 11:55 Vrbl 3 10.00 Fair CLR 86 71.6 62% 92 29.94 0.0
02 11:35 NW 6 10.00 Fair CLR 84.2 73.4 70% 91 29.95 0.0
02 11:15 W 7 10.00 Fair CLR 84.2 73.4 70% 91 29.94 0.0
02 10:55 W 10 10.00 A Few Clouds FEW049 82.4 73.4 74% 88 29.95 0.0
02 10:35 NW 10 10.00 Partly Cloudy FEW049 SCT090 82.4 73.4 74% 88 29.95 0.0
02 10:15 W 7 10.00 A Few Clouds FEW100 84.2 73.4 70% 91 29.94 0.0
02 09:55 W 6 10.00 Fair CLR 82.4 73.4 74% 88 29.93 0.0
02 09:35 SW 6 10.00 Fair CLR 80.6 73.4 79% 85 29.93 0.0
02 09:15 SW 7 10.00 Fair CLR 78.8 73.4 84% 82 29.94 0.0
02 08:55 SW 8 10.00 Fair CLR 78.8 73.4 84% 82 29.93 0.0
02 08:35 SW 9 10.00 Fair CLR 77 73.4 89% 78 29.93 0.0
02 08:15 SW 9 10.00 Fair CLR 75.2 73.4 94% 74 29.93 0.0
02 07:55 SW 7 10.00 Fair CLR 75.2 71.6 76.3 74.5 89% 75 29.93 0.0
02 07:35 SW 7 10.00 Fair CLR 75.2 71.6 89% 75 29.92 0.0
02 07:15 SW 8 10.00 Fair CLR 75.2 71.6 89% 75 29.92 0.0
02 06:55 SW 6 10.00 Fair CLR 75.2 73.4 94% 74 29.92 0.0
02 06:35 SW 8 10.00 Partly Cloudy FEW085 SCT120 75.2 73.4 94% 74 29.93 0.0
02 06:15 SW 8 10.00 Partly Cloudy SCT120 75.2 73.4 94% 74 29.93 0.0
02 05:55 SW 8 10.00 Partly Cloudy SCT120 75.2 71.6 89% 75 29.93 0.0
02 05:35 SW 7 10.00 Fair CLR 75.2 71.6 89% 75 29.93 0.0
02 05:15 SW 7 10.00 Fair CLR 75.2 71.6 89% 75 29.92 0.0
02 04:55 SW 7 10.00 Fair CLR 75.2 73.4 94% 74 29.92 0.0
02 04:35 SW 7 10.00 A Few Clouds FEW120 75.2 73.4 94% 74 29.91 0.0
02 04:15 SW 7 10.00 Light Rain FEW095 FEW120 75.2 73.4 94% 74 29.92 0.0
02 03:55 SW 7 10.00 Light Rain FEW070 SCT100 SCT120 75.2 73.4 94% 74 29.91 0.0
02 03:35 SW 7 10.00 A Few Clouds FEW048 FEW070 75.2 71.6 89% 75 29.92 0.0
02 03:15 SW 5 10.00 Partly Cloudy SCT048 SCT060 75.2 71.6 89% 75 29.92 0.0
02 02:55 SW 7 10.00 Partly Cloudy SCT048 SCT060 75.2 71.6 89% 75 29.92 0.0
02 02:35 S 5 10.00 Mostly Cloudy SCT046 BKN050 75.2 73.4 94% 74 29.92 0.0
02 02:15 SW 5 10.00 Mostly Cloudy BKN048 BKN050 75.2 73.4 94% 74 29.93 0.0
02 01:55 SW 2 10.00 Partly Cloudy SCT048 75.2 73.4 84.9 75.7 94% 74 29.93 0.0
02 01:35 SW 6 10.00 A Few Clouds FEW050 77 73.4 89% 78 29.93 0.0
02 01:15 SW 7 10.00 Fair CLR 77 73.4 89% 78 29.93 0.0
02 00:55 SW 7 10.00 Fair CLR 75.2 73.4 94% 74 29.92 0.0
02 00:35 SW 6 10.00 Fair CLR 77 73.4 89% 78 29.93 0.0
02 00:15 SW 7 10.00 Fair CLR 77 73.4 89% 78 29.92 0.0
01 23:55 SW 7 10.00 Fair CLR 77 73.4 89% 78 29.92 0.0
01 23:35 SW 6 10.00 Fair CLR 77 73.4 89% 78 29.92 0.0
01 23:15 SW 7 10.00 Fair CLR 78.8 75.2 89% 82 29.93 0.0
01 22:55 SW 9 10.00 Fair CLR 78.8 75.2 89% 82 29.93 0.0
01 22:35 SW 7 10.00 Fair CLR 78.8 75.2 89% 82 29.92 0.0
01 22:15 SW 7 10.00 Fair CLR 78.8 75.2 89% 82 29.92 0.0
01 21:55 S 7 10.00 Fair CLR 78.8 75.2 89% 82 29.92 0.0
01 21:35 SW 7 10.00 Fair CLR 78.8 75.2 89% 82 29.92 0.0
01 21:15 SW 6 10.00 Fair CLR 80.6 75.2 84% 86 29.92 0.0
01 20:55 SW 6 10.00 Fair CLR 80.6 75.2 84% 86 29.91 0.0
01 20:35 SW 7 10.00 Fair CLR 82.4 75.2 79% 89 29.91 0.0
01 20:15 SW 7 10.00 Fair CLR 84.2 75.2 74% 92 29.91 0.0
01 19:55 SW 8 10.00 Fair CLR 84.2 75.2 90.3 84.6 74% 92 29.91 0.0
01 19:35 SW 6 10.00 Fair CLR 86 75.2 70% 95 29.91 0.0
01 19:15 SW 9 10.00 Fair CLR 86 75.2 70% 95 29.91 0.0
01 18:55 SW 9 10.00 Fair CLR 87.8 75.2 66% 98 29.92 0.0
01 18:35 SW 8 10.00 Fair CLR 87.8 75.2 66% 98 29.91 0.0
01 18:15 SW 9 10.00 A Few Clouds FEW038 87.8 75.2 66% 98 29.91 0.0
01 17:55 SW 9 10.00 Mostly Cloudy BKN038 89.6 75.2 63% 100 29.9 0.0
01 17:35 SW 9 10.00 Partly Cloudy SCT036 SCT050 89.6 75.2 63% 100 29.9 0.0
01 17:15 SW 9 10.00 A Few Clouds FEW050 89.6 75.2 63% 100 29.9 0.0
01 16:55 SW 10 10.00 Partly Cloudy FEW037 SCT050 89.6 75.2 63% 100 29.91 0.0
01 16:35 SW 10 10.00 Partly Cloudy FEW039 SCT050 89.6 75.2 63% 100 29.91 0.0
01 16:15 SW 6 10.00 Partly Cloudy FEW038 SCT047 SCT050 89.6 75.2 63% 100 29.91 0.0
01 15:55 SW 9 10.00 Mostly Cloudy SCT038 BKN045 89.6 75.2 63% 100 29.92 0.0
01 15:35 SW 10 10.00 Mostly Cloudy SCT036 BKN041 89.6 75.2 63% 100 29.92 0.0
01 15:15 SW 9 10.00 Mostly Cloudy BKN036 89.6 75.2 63% 100 29.92 0.0
01 14:55 W 8 10.00 Partly Cloudy SCT032 SCT037 87.8 75.2 66% 98 29.93 0.0
01 14:35 SW 8 10.00 Partly Cloudy SCT030 89.6 75.2 63% 100 29.93 0.0
01 14:15 Vrbl 5 8.00 Mostly Cloudy SCT028 BKN032 87.8 77 70% 100 29.93 0.0
01 13:55 W 6 10.00 Mostly Cloudy BKN028 BKN032 87.8 75.2 88.3 71.2 66% 98 29.93 0.0
01 13:35 Vrbl 7 9.00 Mostly Cloudy BKN024 87.8 75.2 66% 98 29.93 0.0
01 13:15 SW 6 10.00 Partly Cloudy SCT024 86 75.2 70% 95 29.93 0.0
01 12:55 S 6 10.00 A Few Clouds FEW024 86 75.2 70% 95 29.94 0.0
01 12:35 SW 6 3.00 Fair with Haze CLR 86 75.2 70% 95 29.94 0.0
01 12:15 Vrbl 2 10.00 Fair CLR 84.2 75.2 74% 92 29.94 0.0
01 11:55 Vrbl 2 4.00 Fair with Haze CLR 84.2 75.2 74% 92 29.95 0.0
01 11:35 Vrbl 2 8.00 A Few Clouds FEW039 82.4 75.2 79% 89 29.95 0.0
01 11:15 S 3 4.00 Partly Cloudy with Haze SCT039 82.4 73.4 74% 88 29.96 0.0
01 10:55 Vrbl 2 10.00 Fair CLR 82.4 73.4 74% 88 29.96 0.0
01 10:35 W 2 10.00 Fair CLR 82.4 73.4 74% 88 29.96 0.0
01 10:15 W 3 10.00 Fair CLR 78.8 73.4 84% 82 29.95 0.0
01 09:55 Vrbl 5 10.00 Fair CLR 78.8 73.4 84% 82 29.95 0.0
01 09:35 SW 6 10.00 Fair CLR 77 73.4 89% 78 29.95 0.0
01 09:15 SW 5 10.00 Fair CLR 75.2 71.6 89% 75 29.95 0.0
01 08:55 SW 7 8.00 Fair CLR 75.2 71.6 89% 75 29.96 0.0
01 08:35 SW 5 7.00 Fair CLR 73.4 71.6 94% 29.95 0.0
01 08:15 W 3 6.00 Fog/Mist CLR 71.6 69.8 94% 29.95 0.0
01 07:55 W 3 5.00 Fog/Mist CLR 71.6 69.8 72.1 69.4 94% 29.94 0.0
01 07:35 SW 5 5.00 Fog/Mist CLR 71.6 69.8 94% 29.94 0.0
01 07:15 SW 6 5.00 Fog/Mist CLR 69.8 69.8 100% 29.93 0.0
01 06:55 SW 7 4.00 Fog/Mist CLR 69.8 69.8 100% 29.93 0.0
01 06:35 SW 6 6.00 Fog/Mist CLR 69.8 69.8 100% 29.92 0.0
01 06:15 SW 5 6.00 Fog/Mist CLR 69.8 68 94% 29.92 0.0
01 05:55 SW 5 8.00 Fair CLR 69.8 69.8 100% 29.92 0.0
01 05:35 SW 7 8.00 Fair CLR 69.8 69.8 100% 29.93 0.0
01 05:15 SW 6 8.00 Fair CLR 69.8 69.8 100% 29.92 0.0
01 04:55 SW 7 9.00 Fair CLR 69.8 69.8 100% 29.92 0.0
01 04:35 SW 5 10.00 Fair CLR 69.8 69.8 100% 29.92 0.0
01 04:15 SW 6 10.00 Fair CLR 69.8 69.8 100% 29.92 0.0
01 03:55 SW 6 10.00 Fair CLR 71.6 69.8 94% 29.91 0.0
01 03:35 SW 6 10.00 Fair CLR 71.6 69.8 94% 29.91 0.0
01 03:15 SW 7 10.00 Fair CLR 71.6 69.8 94% 29.91 0.0
01 02:55 SW 7 10.00 Fair CLR 71.6 69.8 94% 29.91 0.0
01 02:35 SW 6 10.00 Fair CLR 71.6 69.8 94% 29.91 0.0
01 02:15 SW 8 10.00 Fair CLR 71.6 68 88% 29.92 0.0
01 01:55 SW 7 10.00 Fair CLR 71.6 68 75.7 71.6 88% 29.92 0.0
01 01:35 SW 7 10.00 Fair CLR 71.6 68 88% 29.92 0.0
01 01:15 SW 8 10.00 Fair CLR 73.4 68 83% 29.92 0.0
01 00:55 SW 9 10.00 Fair CLR 73.4 68 83% 29.92 0.0
01 00:35 SW 8 10.00 Fair CLR 73.4 68 83% 29.92 0.0
01 00:15 SW 8 10.00 Fair CLR 73.4 68 83% 29.92 0.0
31 23:55 SW 6 10.00 Fair CLR 73.4 68 83% 29.92 0.0
31 23:35 SW 9 10.00 A Few Clouds FEW050 73.4 68 83% 29.92 0.0
Date Time (edt) Wind (mph) Vis. (mi.) Weather Sky Cond. Air Dwpt Max. Min. Relative Humidity Wind Chill (°F) Heat Index (°F) altimeter (in) sea level (mb) 1 hr 3 hr 6 hr
6 hour
Temperature (ºF) Pressure Precipitation (in)